Tracking 21473 objects as of 19-Sep-2020
HD Live streaming from Space Station
objects crossing your sky now

SCOUT G-1 DEB

Track SCOUT G-1 DEB now!
10-day predictions


NORAD ID: 14222
Int'l Code: 1983-063C
Perigee: 678.1 km
Apogee: 707.0 km
Inclination: 82.4 °
Period: 98.5 minutes
Semi major axis: 7063 km
RCS: 0.0039 m2 (small)
Launch date: June 27, 1983
Source: United States (US)
Launch site: AIR FORCE WESTERN TEST RANGE (AFWTR)

Note: This is SATELLITE DEBRIS
aabbcc
Your satellite tracking list
Your tracking list is empty




NASA's NSSDC Master Catalog

Two Line Element Set (TLE):
1 14222U 83063C   20262.49533419 +.00000286 +00000-0 +52497-4 0  9998
2 14222 082.3748 152.3767 0020468 095.7258 264.6279 14.62419107969962
Source of the keplerian elements: AFSPC